weather.gov     
National Weather Service

Regional Weather Roundup
NWS Homepage
This page is being discontinued on March 12, 2014.
The same data is available at this site. Please update your bookmarks.
Thank you, and we apologize for the inconvenience.
Please send an email to SR-SRH.Webmaster@noaa.gov with any concerns.


Current Version
Previous Version:    01  02  03  04  05  06  07  08  09  10  11  12  13  14  15  16  17  18  19  20  21  22  23  24  25  26  27  28  29  30  
   31  32  33  34  35  36  37  38  39  40  41  42  43  44  45  46  47  48  49  50  51  52  53  54  
[Printable]
466
ASUS43 KTOP 202359
RWRKS

WEATHER ROUNDUP FOR KANSAS
NATIONAL WEATHER SERVICE GOODLAND KS
700 PM CDT SUN APR 20 2014

NOTE:  "FAIR" INDICATES FEW OR NO CLOUDS BELOW 12,000 FEET WITH NO
SIGNIFICANT WEATHER AND/OR OBSTRUCTIONS TO VISIBILITY.

KSZ001>006-013>018-027>032-041>047-210100-
NORTHWEST KANSAS

CITY           SKY/WX    TMP DP  RH WIND       PRES   REMARKS
GOODLAND       MOSUNNY   73  45  36 N8        29.93S
6HR MIN TEMP:  62; 6HR MAX TEMP:  75;

HAYS           PTSUNNY   73  52  46 SE23G32   29.91R
HILL CITY      TSTM      61  54  77 E7        29.93R
6HR MIN TEMP:  60; 6HR MAX TEMP:  80; 6HR PCP:  0.23;

RUSSELL        PTSUNNY   72  53  51 SE25G33   29.91R
6HR MIN TEMP:  67; 6HR MAX TEMP:  77; 6HR PCP: TRACE;

$$

KSZ061>065-074>080-084>089-210100-
SOUTHWEST KANSAS

CITY           SKY/WX    TMP DP  RH WIND       PRES   REMARKS
DODGE CITY     CLOUDY    69  54  58 SE21G29   29.92R
6HR MIN TEMP:  67; 6HR MAX TEMP:  80; 6HR PCP: TRACE;

ELKHART          N/A     65  48  54 W12         N/A
GARDEN CITY    PTSUNNY   73  46  38 SW16      29.89R
6HR MIN TEMP:  73; 6HR MAX TEMP:  81; 6HR PCP: TRACE;

GREAT BEND     MOSUNNY   72  55  56 SE23G30   29.92S
LIBERAL        PTSUNNY   70  48  46 S15       29.93R
$$

KSZ066>073-081>083-090>101-210100-
SOUTHEAST KANSAS

CITY           SKY/WX    TMP DP  RH WIND       PRES   REMARKS
CHANUTE        PTSUNNY   71  54  54 S14       30.02F
6HR MIN TEMP:  71; 6HR MAX TEMP:  75; 6HR PCP: TRACE;

COFFEYVILLE    CLOUDY    71  54  54 S7        30.02F
6HR MIN TEMP:  71; 6HR MAX TEMP:  77; 6HR PCP: TRACE;

HUTCHINSON     PTSUNNY   72  57  59 SE14G23   29.95F
6HR MIN TEMP:  63; 6HR MAX TEMP:  72; 6HR PCP: TRACE;

NEWTON         PTSUNNY   70  54  56 S14       30.01S
PARSONS        CLOUDY    72  53  51 S6        30.04F
6HR MIN TEMP:  71; 6HR MAX TEMP:  76;

WICHITA INTL   CLOUDY    73  56  54 S17       29.97F
6HR MIN TEMP:  66; 6HR MAX TEMP:  73; 6HR PCP: TRACE;

WICHITA JABRA  CLOUDY    72  56  57 S14       29.97F
6HR MIN TEMP:  65; 6HR MAX TEMP:  73; 6HR PCP:  0.01;

WINFIELD       CLOUDY    73  55  53 SE14      30.00S
6HR MIN TEMP:  66; 6HR MAX TEMP:  76; 6HR PCP: TRACE;

$$

KSZ007>012-019>026-033>040-048>060-102>105-210100-
NORTHEAST KANSAS

CITY           SKY/WX    TMP DP  RH WIND       PRES   REMARKS
CONCORDIA      CLOUDY    69  52  54 S17       29.94S
6HR MIN TEMP:  69; 6HR MAX TEMP:  80; 6HR PCP: TRACE;

EMPORIA        CLOUDY    67  58  72 SE6       29.98F
6HR MIN TEMP:  65; 6HR MAX TEMP:  78; 6HR PCP: TRACE;

LAWRENCE       MOSUNNY   73  56  54 S17G24    29.99S
6HR MIN TEMP:  73; 6HR MAX TEMP:  80;

MANHATTAN      CLOUDY    69  58  67 S13       29.96F
6HR MIN TEMP:  69; 6HR MAX TEMP:  79; 6HR PCP: TRACE;

OLATHE IND     PTSUNNY   70  53  54 S16       30.02S
6HR MIN TEMP:  70; 6HR MAX TEMP:  77;

OLATHE EXE     PTSUNNY   70  53  54 S13       30.01S
6HR MIN TEMP:  70; 6HR MAX TEMP:  76;

SALINA         PTSUNNY   70  53  54 S15       29.95F
6HR MIN TEMP:  68; 6HR MAX TEMP:  72; 6HR PCP: TRACE;

TOPEKA BILLARD PTSUNNY   72  55  55 S10       29.99F
6HR MIN TEMP:  72; 6HR MAX TEMP:  80; 6HR PCP: TRACE;

TOPEKA FORBES  CLOUDY    71  55  56 S15       29.99F
6HR MIN TEMP:  70; 6HR MAX TEMP:  78; 6HR PCP: TRACE;

$$




U.S. Dept. of Commerce
NOAA National Weather Service
1325 East West Highway
Silver Spring, MD 20910
E-mail: w-nws.webmaster@noaa.gov
Page last modified: May 16, 2007
NATIONAL WEATHER SERVICE: for Safety, for Work, for Fun - FOR LIFE